Weather History for KLEW - September, 2012

Change the Weather History Date:

Wednesday, September 19, 2012

  Actual Average Record
Temperature  
Mean Temperature 56 °F -  
Max Temperature 66 °F 66 °F 78 °F (1998)
Min Temperature 44 °F 47 °F 33 °F (2014)
Degree Days  
Heating Degree Days 9    
Growing Degree Days 6 (Base 50)    
Moisture  
Dew Point 38 °F    
Average Humidity 48    
Maximum Humidity 76    
Minimum Humidity 32    
Precipitation  
Precipitation 0.14 in - - ()
Sea Level Pressure  
Sea Level Pressure 29.95 in    
Wind  
Wind Speed 13 mph (NW)    
Max Wind Speed 20 mph    
Max Gust Speed 34 mph    
Visibility 10 miles    
Events      
Averages and records for this station are not official NWS values.
T = Trace of Precipitation, MM = Missing Value Source: NWS Daily Summary

Daily Weather History Graph

Daily Weather History Graph

Search for Another Location

Airport or City:

Trip Planner

Search our weather history database for the weather conditions in past years. The results will help you decide how hot, cold, wet, or windy it might be!

Date:

Astronomy

Sep. 19, 2012 Rise Set
Actual Time 6:25 AM EDT 6:43 PM EDT
Civil Twilight 5:56 AM EDT 7:12 PM EDT
Nautical Twilight 5:22 AM EDT 7:46 PM EDT
Astronomical Twilight 4:47 AM EDT 8:20 PM EDT
Moon 10:42 AM EDT (9/19) 8:38 PM EDT (9/19)
Length of Visible Light 13h 15m
Length of Day
12h 17m
Waxing Crescent, 17% of the Moon is Illuminated
Sep 19
Waxing Crescent
Sep 22
First Quarter
Sep 29
Full
Oct 8
Last Quarter
Oct 15
New

Hourly Weather History & Observations

Time (EDT) Temp. Windchill Dew Point Humidity Pressure Visibility Wind Dir Wind Speed Gust Speed Precip Events Conditions
12:35 AM - - - N/A% 29.68 in 10.0 mi South 18.4 mph 26.5 mph 0.01 in   Overcast
12:55 AM - - - N/A% 29.67 in 9.0 mi SSE 15.0 mph 34.5 mph 0.01 in   Overcast
1:15 AM - - - N/A% 29.67 in 8.0 mi South 15.0 mph 27.6 mph 0.01 in   Overcast
1:35 AM - - - N/A% 29.67 in 5.0 mi South 17.3 mph 28.8 mph 0.06 in   Overcast
1:55 AM - - - N/A% 29.66 in 7.0 mi South 19.6 mph 32.2 mph 0.08 in   Overcast
2:15 AM - - - N/A% 29.66 in 10.0 mi South 19.6 mph 32.2 mph N/A   Overcast
2:35 AM - - - N/A% 29.67 in 10.0 mi South 16.1 mph 27.6 mph N/A   Overcast
2:55 AM - - - N/A% 29.66 in 5.0 mi South 13.8 mph - 0.03 in   Overcast
3:15 AM - - - N/A% 29.66 in 10.0 mi South 13.8 mph 20.7 mph 0.01 in   Overcast
3:35 AM - - - N/A% 29.67 in 7.0 mi South 11.5 mph 19.6 mph 0.02 in   Overcast
4:15 AM - - - N/A% 29.67 in 10.0 mi South 12.7 mph 17.3 mph N/A   Overcast
4:35 AM - - - N/A% 29.68 in 10.0 mi South 9.2 mph - N/A   Overcast
4:55 AM - - - N/A% 29.69 in 10.0 mi South 12.7 mph - N/A   Overcast
5:15 AM - - - N/A% 29.70 in 10.0 mi South 11.5 mph - N/A   Overcast
6:15 AM - - - N/A% 29.72 in 10.0 mi SSW 9.2 mph - N/A   Overcast
6:35 AM - - - N/A% 29.72 in 10.0 mi SSW 9.2 mph - N/A   Overcast
6:55 AM - - - N/A% 29.74 in 10.0 mi SW 8.1 mph - N/A   Overcast
7:15 AM - - - N/A% 29.75 in 10.0 mi WSW 8.1 mph - N/A   Overcast
7:35 AM - - - N/A% 29.77 in 10.0 mi West 8.1 mph - N/A   Overcast
7:55 AM - - - N/A% 29.80 in 10.0 mi NW 11.5 mph - N/A   Overcast
8:35 AM - - - N/A% 29.83 in 10.0 mi NNW 6.9 mph - N/A   Overcast
9:15 AM - - - N/A% 29.85 in 10.0 mi NW 9.2 mph - N/A   Overcast
9:55 AM 60.8 °F - 48.2 °F 63% 29.87 in 10.0 mi NNW 9.2 mph - N/A   Overcast
10:15 AM 60.8 °F - 48.2 °F 63% 29.88 in 10.0 mi NW 6.9 mph - N/A   Overcast
10:55 AM 60.8 °F - 48.2 °F 63% 29.90 in 10.0 mi NW 9.2 mph - N/A   Overcast
11:15 AM 60.8 °F - 46.4 °F 59% 29.91 in 10.0 mi NW 10.4 mph 18.4 mph N/A   Overcast
11:35 AM 62.6 °F - 46.4 °F 55% 29.92 in 10.0 mi NW 12.7 mph - N/A   Mostly Cloudy
11:55 AM 62.6 °F - 44.6 °F 52% 29.93 in 10.0 mi NW 11.5 mph - N/A   Clear
12:15 PM 64.4 °F - 44.6 °F 49% 29.94 in 10.0 mi WNW 11.5 mph 19.6 mph N/A   Clear
12:35 PM 64.4 °F - 44.6 °F 49% 29.95 in 10.0 mi NW 12.7 mph 19.6 mph N/A   Clear
12:55 PM 66.2 °F - 44.6 °F 46% 29.96 in 10.0 mi WNW 9.2 mph 16.1 mph N/A   Clear
1:15 PM 66.2 °F - 44.6 °F 46% 29.97 in 10.0 mi NW 10.4 mph 16.1 mph N/A   Clear
1:35 PM - - - N/A% 29.97 in 10.0 mi NNW 16.1 mph 19.6 mph N/A   Clear
2:15 PM 66.2 °F - 39.2 °F 37% 30.00 in 10.0 mi NW 13.8 mph 19.6 mph N/A   Clear
2:35 PM 66.2 °F - 39.2 °F 37% 30.01 in 10.0 mi NW 11.5 mph 18.4 mph N/A   Clear
2:55 PM 66.2 °F - 39.2 °F 37% 30.02 in 10.0 mi NW 11.5 mph 16.1 mph N/A   Clear
3:15 PM 66.2 °F - 37.4 °F 35% 30.02 in 10.0 mi North 12.7 mph 19.6 mph N/A   Clear
3:35 PM 66.2 °F - 35.6 °F 32% 30.03 in 10.0 mi NNW 13.8 mph - N/A   Clear
3:55 PM 66.2 °F - 37.4 °F 35% 30.05 in 10.0 mi NW 10.4 mph 17.3 mph N/A   Clear
4:15 PM 66.2 °F - 35.6 °F 32% 30.05 in 10.0 mi NNW 11.5 mph 18.4 mph N/A   Clear
4:35 PM 64.4 °F - 35.6 °F 34% 30.06 in 10.0 mi NW 9.2 mph - N/A   Clear
4:55 PM 64.4 °F - 35.6 °F 34% 30.07 in 10.0 mi NNW 12.7 mph - N/A   Clear
5:15 PM 62.6 °F - 32.0 °F 32% 30.09 in 10.0 mi North 11.5 mph - N/A   Clear
5:35 PM 62.6 °F - 33.8 °F 34% 30.09 in 10.0 mi North 10.4 mph - N/A   Clear
5:55 PM 62.6 °F - 33.8 °F 34% 30.10 in 10.0 mi North 8.1 mph - N/A   Clear
6:15 PM 60.8 °F - 33.8 °F 36% 30.11 in 10.0 mi NNW 6.9 mph - N/A   Clear
6:35 PM 59.0 °F - 33.8 °F 39% 30.11 in 10.0 mi NNW 9.2 mph - N/A   Clear
6:55 PM 57.2 °F - 33.8 °F 41% 30.11 in 10.0 mi NNW 9.2 mph - N/A   Clear
7:15 PM 55.4 °F - 33.8 °F 44% 30.12 in 10.0 mi NNW 9.2 mph - N/A   Clear
7:35 PM 55.4 °F - 33.8 °F 44% 30.14 in 10.0 mi NNW 8.1 mph - N/A   Clear
7:55 PM 55.4 °F - 33.8 °F 44% 30.15 in 10.0 mi NNW 9.2 mph - N/A   Clear
8:15 PM 55.4 °F - 32.0 °F 41% 30.16 in 10.0 mi NW 9.2 mph - N/A   Clear
8:35 PM 55.4 °F - 33.8 °F 44% 30.17 in 10.0 mi NNW 10.4 mph - N/A   Clear
8:55 PM 53.6 °F - 33.8 °F 47% 30.19 in 10.0 mi NNW 5.8 mph - N/A   Clear
9:15 PM 53.6 °F - 33.8 °F 47% 30.19 in 10.0 mi North 8.1 mph - N/A   Clear
9:35 PM 51.8 °F - 35.6 °F 54% 30.19 in 10.0 mi NNE 10.4 mph - N/A   Clear
9:55 PM 48.2 °F - 35.6 °F 62% 30.21 in 10.0 mi NNE 9.2 mph - N/A   Clear
10:15 PM 48.2 °F - 37.4 °F 66% 30.21 in 10.0 mi North 8.1 mph - N/A   Clear
10:35 PM 46.4 °F 43.5 °F 37.4 °F 71% 30.21 in 10.0 mi North 5.8 mph - N/A   Clear
10:55 PM 46.4 °F 41.9 °F 37.4 °F 71% 30.21 in 10.0 mi NNE 9.2 mph - N/A   Clear
11:15 PM 48.2 °F - 37.4 °F 66% 30.22 in 10.0 mi NNE 8.1 mph - N/A   Clear
11:35 PM 46.4 °F 44.3 °F 37.4 °F 71% 30.23 in 10.0 mi NNE 4.6 mph - N/A   Clear
11:55 PM 44.6 °F - 37.4 °F 76% 30.24 in 10.0 mi Calm Calm - N/A   Clear